This is the latest recevied weather packets stored in our database for station/object KE5VT. If no packets are shown the sender has not sent any weather packets the latest 10 day(s).
| Time | Temp. | Humidity | Pressure | Rain* | Wind** | Luminosity | Snow |
|---|---|---|---|---|---|---|---|
| 1777994294 | 21.11° C | 64% | 1013.6 hPa | 0 mm | - | 70 W/m² | - |
| 1777993991 | 21.11° C | 65% | 1013.8 hPa | 0 mm | - | 57 W/m² | - |
| 1777993688 | 21.11° C | 65% | 1013.5 hPa | 0 mm | - | 81 W/m² | - |
| 1777993385 | 20.56° C | 65% | 1013.6 hPa | 0 mm | - | 51 W/m² | - |
| 1777993085 | 20.56° C | 68% | 1013.5 hPa | 0 mm | - | 58 W/m² | - |
| 1777992784 | 20.56° C | 69% | 1013.6 hPa | 0 mm | - | 72 W/m² | - |
| 1777992481 | 20° C | 69% | 1013.5 hPa | 0 mm | - | 60 W/m² | - |
| 1777992179 | 20° C | 71% | 1013.4 hPa | 0 mm | - | 54 W/m² | - |
| 1777991876 | 20° C | 70% | 1013.5 hPa | 0 mm | - | 95 W/m² | - |
| 1777991574 | 19.44° C | 71% | 1013.4 hPa | 0 mm | - | 68 W/m² | - |
| 1777991270 | 19.44° C | 72% | 1013.4 hPa | 0 mm | - | 41 W/m² | - |
| 1777990967 | 19.44° C | 73% | 1013.4 hPa | 0 mm | - | 42 W/m² | - |
| 1777990665 | 18.89° C | 73% | 1013.4 hPa | 0 mm | - | 38 W/m² | - |
| 1777990362 | 18.33° C | 75% | 1013.4 hPa | 0 mm | - | 38 W/m² | - |
| 1777990058 | 18.33° C | 75% | 1013.5 hPa | 0 mm | - | 38 W/m² | - |
| 1777989755 | 18.33° C | 75% | 1013.4 hPa | 0 mm | - | 39 W/m² | - |
| 1777989452 | 18.33° C | 76% | 1013.3 hPa | 0 mm | - | 60 W/m² | - |
| 1777989148 | 17.78° C | 76% | 1013.4 hPa | 0 mm | - | 50 W/m² | - |
| 1777988844 | 17.78° C | 77% | 1013.4 hPa | 0 mm | - | 43 W/m² | - |
| 1777988542 | 17.78° C | 77% | 1013.5 hPa | 0 mm | - | 38 W/m² | - |
| 1777988238 | 17.22° C | 78% | 1013.3 hPa | 0 mm | - | 35 W/m² | - |
| 1777987934 | 17.22° C | 78% | 1013.4 hPa | 0 mm | - | 34 W/m² | - |
| 1777987630 | 16.67° C | 79% | 1013.5 hPa | 0 mm | - | 32 W/m² | - |
| 1777987328 | 16.67° C | 80% | 1013.6 hPa | 0 mm | - | 32 W/m² | - |
| 1777987025 | 16.11° C | 80% | 1013.5 hPa | 0 mm | - | 31 W/m² | - |
* Rain latest hour (hover to see other rain measurements)
** Current wind speed in m/s (hover to see current wind gust speed)